SCP
0 0 0 0 0 0 0 0 0 0 0 0 0 0 0 0 0 0 0 0 0 0 -0 0 0 0 0 0 0 0 0 0 0 0 0 0 0 0 0 0 0 0 0 0
0 0 0 0 0 0 0 0 0 0 0 0 0 0 0 0 0 0 0 0 0 0 0 0 0 0 0 0 0 0 0 0 0 0 0 0 0 0 0 0 0 0 0 0
0 0 0 0 0 0 0 0 0 0 0 0 0 0 0 0 0 0 0 0 0 0 0 0 0 0 0 0 0 0 0 0 0 0 0 0 0 0 0 0 0 0 0 0
0 0 0 0 0 0 0 0 0 0 0 0 0 0 0 0 0 0 0 0 0 0 0 0 0 0 0 0 0 0 0 0 0 0 0 0 0 0 0 0 0 0 0 0
0 0 0 0 0 0 0 0 0 0 0 0 0 0 0 0 0 0 0 0 0 0 0 0 0 0 0 0 0 0 0 0 0 0 0 0 0 0 0 0 0 0 0 0
0 0 0 0 0 0 0 0 0 0 0 0 0 0 0 0 0 0 0 0 0 0 0 0 0 0 0 0 0 0 0 0 0 0 0 0 0 0 0 0 0 0 0 0
0 0 0 0 0 0 0 0 0 0 0 0 0 0 0 0 0 0 0 0 0 0 0 0 0 0 0 0 0 0 0 0 0 0 0 0 0 0 0 0 0 0 0 0
0 0 0 0 0 0 0 0 0 0 0 0 0 0 0 0 0 0 0 0 0 0 0 0 0 0 0 0 0 0 0 0 0 0 0 0 0 0 0 0 0 0 0 0
0 0 0 0 0 0 0 0 0 0 0 0 0 0 0 0 0 0 0 0 0 0 0 0 0 0 0 0 0 0 0 0 0 0 0 0 0 0 0 0 0 0 0 0
0 0 0 0 0 0 0 0 0 0 0 0 0 0 0 0 0 0 0 0 0 0 0 0 0 0 0 0 0 0 0 0 0 0 0 0 0 0 0 0 0 0 0 0
0 0 0 0 0 0 0 0 0 0 0 0 0 0 0 0 0 0 0 0 0 0 0 0 0 0 0 0 0 0 0 0 0 0 0 0 0 0 0 0 0 0 0 0
0 0 0 0 0 0 0 0 0 0 0 0 0 0 0 0 0 0 0 0 0 0 0 0 0 0 0 0 0 0 0 0 0 0 0 0 0 0 0 0 0 0 0 0
0 0 0 0 0 0 0 0 0 0 0 0 0 0 0 0 0 0 0 0 0 0 0 0 0 0 0 0 0 0 0 0 0 0 0 0 0 0 0 0 0 0 0 0
0 0 0 0 0 0 0 0 0 0 0 0 0 0 0 0 0 0 0 0 0 -0 0 0 0 0 0 0 0 0 0 0 0 0 0 0 0 0 0 0 0 0 0 0
0 0 0 0 0 0 0 0 0 0 0 0 -0 0 0 0 0 0 0 0 0 0 0 0 0 0 0 0 0 0 0 0 0 0 0 0 0 0 0 0 0 0 0 0
0 0 0 0 0 0 0 0 0 0 0 0 0 0 0 0 0 0 0 0 0 0 0 0 0 0 0 0 0 0 0 0 0 0 0 0 0 0 0 0 0 0 0 0
0 0 0 0 0 0 0 0 0 0 0 0 0 0 0 0 0 0 0 0 0 0 0 0 0 0 0 0 0 0 0 0 0 0 0 0 0 0 0 0 0 0 0 0
0 0 0 0 0 0 0 0 0 0 0 0 0 0 0 0 0 0 0 0 0 0 0 0 0 0 0 0 0 0 0 0 0 0 0 0 0 0 0 0 0 0 0 0
0 0 0 0 0 0 0 0 0 0 0 0 0 0 0 0 0 0 0 0 0 0 0 0 0 0 0 0 0 0 0 0 0 0 0 0 0 0 0 0 0 0 0 0
0 0 0 0 0 0 0 0 0 0 -0 0 0 0 0 0 0 0 0 0 0 0 0 0 0 0 0 0 0 0 0 0 0 0 0 0 0 0 0 0 0 0 0 0
0 0 0 0 0 0 0 0 0 0 0 0 0 0 0 0 0 0 0 0 0 0 0 0 0 0 0 0 0 0 0 0 0 0 0 0 0 0 0 0 0 0 0 0
0 0 0 0 0 0 0 0 0 0 0 0 0 0 0 0 0 0 0 0 0 0 0 0 0 0 0 0 0 0 0 0 0 0 0 0 0 0 0 0 0 0 0 0
0 0 0 0 0 0 0 0 0 0 0 0 0 0 0 0 0 0 0 0 0 0 0 0 0 0 0 0 0 0 0 0 0 0 0 0 0 0 0 0 0 0 0 0
0 0 0 0 0 0 0 0 0 0 0 0 0 0 0 0 0 0 0 0 0 0 0 0 0 0 0 0 0 0 0 0 0 0 0 0 0 0 0 0 0 0 0 0
0 0 0 0 0 0 0 0 0 0 0 0 0 0 0 0 0 0 0 0 0 0 0 0 -0 -0 0 0 0 0 0 0 0 0 0 0 0 0 0 0 0 0 0 0
0 0 0 0 0 0 0 0 0 0 0 0 0 0 0 0 0 0 0 0 0 0 0 0 0 0 0 0 0 0 0 0 0 0 0 0 0 0 0 0 0 0 0 0
Wind_Speed_500mb
13 10 13 15 13 11 11 13 11 2 6 5 11 17 18 22 19 31 45 48 56 63 56 57 53 52 56 60 64 63 63 59 57 55 59 49 55 51 51 48 44 43 40 38
8 14 17 17 11 10 7 9 8 4 3 8 2 20 20 12 21 40 48 53 61 61 64 62 59 57 56 59 58 64 66 64 62 60 62 59 51 54 54 53 52 49 46 44
16 14 21 14 10 12 6 12 10 9 3 0 6 15 12 12 36 50 49 53 60 67 69 64 64 58 58 63 61 59 59 58 57 59 58 59 56 53 51 52 56 54 52 53
9 8 22 14 9 11 9 11 8 10 7 9 5 11 12 12 18 14 59 67 72 73 73 69 62 56 56 60 60 56 59 59 54 55 58 57 54 56 53 45 37 37 45 47
15 17 17 11 16 15 14 10 11 6 6 2 2 5 15 2 11 20 46 75 85 84 76 73 65 51 50 50 55 52 55 60 60 61 61 60 57 55 49 44 37 33 34 40
11 9 14 21 6 17 19 14 12 8 5 6 12 11 10 11 17 16 17 53 65 69 75 80 62 56 51 51 54 53 52 56 60 62 65 66 64 61 57 51 44 41 36 39
5 5 2 11 14 8 9 16 2 2 2 11 3 5 18 17 19 13 10 20 18 30 49 65 71 67 58 52 57 56 54 54 57 59 63 64 65 65 60 57 52 43 41 42
20 12 17 8 14 18 13 18 11 12 7 7 7 14 13 19 23 39 46 40 34 28 32 45 55 58 57 54 56 53 51 48 48 52 58 62 63 61 55 52 52 44 46 43
15 9 4 6 9 24 12 9 13 13 4 6 9 13 19 22 22 35 40 34 51 38 30 38 49 51 49 51 48 43 43 46 49 53 57 59 60 53 50 47 45 47 43 38
12 9 2 1 8 5 17 21 8 3 7 8 9 9 12 12 17 14 15 33 30 30 31 37 41 42 42 41 40 41 43 43 41 38 37 40 41 42 44 42 42 45 43 35
11 9 5 5 12 17 8 10 6 11 9 9 1 11 15 18 8 13 17 20 23 30 34 38 38 36 37 38 38 37 35 34 32 31 30 31 30 30 40 42 42 40 40 35
5 11 9 9 4 6 3 16 15 14 10 3 6 13 5 11 8 18 18 12 19 23 29 30 33 36 37 36 35 32 29 28 30 30 28 28 32 38 40 42 41 39 39 34
14 1 8 7 6 3 9 6 13 12 6 14 9 9 8 10 7 10 10 12 17 23 31 36 40 40 37 35 35 34 33 32 32 31 30 33 35 36 39 38 37 36 32 29
24 7 14 21 12 15 12 12 11 12 5 8 28 6 4 9 11 12 9 8 17 27 32 37 42 41 38 38 38 37 38 36 34 35 38 39 40 40 38 35 32 31 30 30
11 13 8 3 6 14 13 22 24 25 49 20 51 23 18 14 12 14 10 10 11 19 28 38 43 43 41 42 43 44 43 40 38 39 41 42 41 39 37 36 36 34 34 33
5 3 6 6 6 1 5 17 36 45 39 45 34 29 9 46 45 32 35 30 34 36 38 41 42 45 48 46 46 47 49 48 47 46 44 44 43 41 41 41 40 40 39 36
15 12 7 9 4 9 9 32 28 24 29 33 36 23 15 16 21 45 49 48 52 53 50 52 44 41 42 47 51 51 50 49 49 49 49 48 47 46 46 45 45 43 42 40
12 13 6 6 4 9 16 13 28 38 34 41 47 6 12 29 55 60 57 52 51 50 53 57 51 47 47 51 52 50 52 54 55 56 56 55 54 52 51 51 50 48 45 41
12 11 6 8 6 12 22 12 13 15 33 31 37 18 30 53 43 50 46 59 72 66 61 59 59 63 56 53 53 57 58 61 62 65 66 65 63 61 58 57 54 52 49 45
7 13 15 7 12 24 9 23 23 13 41 19 32 29 31 31 20 16 55 58 62 63 67 72 69 66 64 61 59 62 66 70 72 73 73 70 66 62 61 59 57 53 49 46
10 13 28 14 12 16 11 11 32 20 14 11 22 33 33 18 29 9 17 27 33 36 40 46 50 52 52 53 56 60 68 75 74 74 73 70 66 64 60 59 58 57 54 49
20 19 16 11 18 34 16 11 24 6 6 9 1 5 11 31 33 33 36 40 42 42 43 46 49 51 48 45 48 54 62 66 74 74 71 70 69 69 68 65 63 59 54 50
10 16 13 24 12 7 39 3 9 4 1 5 7 4 7 8 6 5 12 18 19 21 23 24 27 30 32 36 40 46 53 62 72 74 74 74 73 72 73 72 68 63 57 53
5 5 8 7 7 11 38 16 8 9 6 6 5 2 4 3 6 5 5 10 15 16 14 13 16 18 20 23 29 35 42 51 64 71 74 76 77 77 76 70 66 63 61 57
5 12 11 3 5 10 12 19 15 7 3 1 2 2 4 7 9 10 8 9 10 10 10 13 15 15 15 17 21 28 34 43 57 68 74 78 79 79 77 73 69 64 56 49
8 8 15 11 21 12 10 17 17 15 15 14 12 13 13 12 14 17 17 17 16 14 12 13 15 17 15 18 21 27 32 41 54 68 76 80 79 79 76 73 70 61 53 48
Wind_Direction_500mb
157 125 179 184 180 171 159 164 196 284 13 143 218 257 263 238 262 243 233 232 233 233 234 234 233 235 233 234 234 238 238 240 244 245 241 244 242 243 245 247 249 251 254 258
80 191 200 180 168 144 141 150 193 277 175 161 262 260 255 206 241 239 242 237 237 241 239 237 233 234 233 234 234 236 237 238 243 246 249 248 249 248 250 251 253 256 257 259
168 202 152 142 150 140 135 163 184 203 83 157 333 276 259 238 236 242 242 248 245 241 242 241 240 237 237 236 234 234 235 236 237 239 242 245 247 248 247 249 249 252 258 259
178 149 152 140 165 129 165 204 148 153 120 233 130 278 258 242 243 220 237 238 240 239 241 243 242 243 243 240 235 236 233 233 236 239 240 243 247 250 250 257 261 256 251 260
199 157 146 157 177 157 213 141 141 123 126 26 258 267 265 181 256 249 238 234 237 239 239 240 238 238 241 239 234 235 231 230 231 238 242 244 247 253 256 258 258 257 258 257
167 186 158 178 114 151 149 86 54 60 102 270 215 191 252 185 206 249 239 242 246 247 245 243 239 236 232 232 234 234 231 230 232 236 242 245 247 249 251 253 255 260 259 266
112 171 193 135 89 53 105 108 358 289 268 221 10 241 251 265 242 226 254 263 252 253 241 234 231 229 229 228 233 231 232 231 233 238 242 246 249 249 250 248 253 253 254 262
167 210 168 182 167 157 177 156 152 198 206 249 61 240 249 249 282 262 255 255 254 276 242 223 221 221 221 225 229 229 231 235 241 246 250 251 250 247 245 243 245 245 245 252
146 225 60 149 151 149 199 182 146 105 16 44 236 297 293 275 255 253 255 250 247 249 235 214 207 212 219 222 227 233 238 242 247 252 252 248 246 243 236 227 230 237 241 247
186 121 2 192 99 23 185 151 148 33 154 254 267 273 238 282 263 236 239 241 233 224 217 206 206 210 216 224 231 240 245 249 246 240 239 237 236 234 227 217 222 230 238 240
133 99 189 127 213 167 144 169 101 128 170 178 297 264 221 252 318 267 248 235 224 216 209 205 207 213 222 231 235 235 231 228 228 227 222 221 216 211 205 215 217 221 233 238
171 111 141 202 245 276 182 169 161 187 205 266 133 258 202 240 240 293 283 256 232 216 208 206 211 219 227 231 231 230 230 228 225 224 219 208 206 204 204 206 212 226 231 221
179 128 91 28 319 286 211 177 174 99 93 196 151 258 355 269 312 306 277 251 225 216 210 213 217 223 228 231 232 232 230 226 223 217 212 207 204 204 208 214 220 227 225 218
142 133 161 191 212 139 161 164 145 130 190 183 242 162 344 302 275 289 300 230 212 215 219 224 226 228 230 230 231 230 228 224 220 217 212 209 208 209 214 217 215 215 212 206
150 183 157 58 186 159 173 174 168 181 222 190 252 214 219 217 220 252 249 252 242 233 233 239 237 235 233 231 228 227 227 228 225 219 214 210 211 211 213 212 210 204 198 193
17 132 124 7 23 16 175 186 197 210 217 236 247 255 213 232 251 253 260 273 274 274 270 264 254 243 235 233 233 232 229 224 222 220 216 214 212 212 212 209 205 202 199 194
138 126 99 250 306 88 310 218 204 219 218 226 236 228 174 215 221 238 245 249 256 259 269 272 258 246 242 241 238 235 232 227 226 223 220 218 215 214 212 209 207 203 198 193
135 115 83 158 84 189 253 176 199 210 228 225 247 260 192 219 237 248 249 251 256 258 263 262 261 265 260 250 244 239 233 232 230 227 224 221 219 217 214 211 206 201 197 198
151 136 108 149 210 286 273 217 143 170 257 223 243 241 237 258 260 251 243 244 251 257 262 266 271 272 270 268 259 246 236 233 230 229 227 224 221 219 216 211 205 202 202 204
139 157 174 148 179 221 265 195 157 113 271 200 214 220 218 198 242 243 254 259 263 264 263 263 265 267 265 263 258 245 237 233 232 230 228 224 221 219 216 211 207 206 207 213
153 171 198 189 234 277 244 140 141 173 256 226 224 240 234 197 226 256 258 253 256 258 259 259 258 262 264 262 258 248 239 236 235 231 227 223 220 217 213 211 209 209 211 211
162 162 198 201 223 254 165 94 172 230 316 320 26 23 260 248 253 255 259 264 268 266 261 261 264 264 264 262 257 249 245 241 235 232 227 222 217 212 210 210 211 212 214 214
177 195 177 189 205 201 176 183 193 76 36 326 329 356 327 335 353 290 277 271 268 264 267 270 270 270 269 267 264 257 252 243 235 228 224 220 216 213 211 210 211 212 212 213
277 185 169 108 185 164 181 193 213 239 210 202 204 278 360 337 307 306 276 274 273 283 292 292 292 291 284 278 272 263 251 245 236 229 223 218 216 213 213 212 214 215 214 211
197 137 154 293 67 99 182 191 184 178 174 129 33 356 346 339 345 347 332 322 319 313 319 319 320 316 306 286 268 259 251 239 230 225 222 220 218 216 214 214 215 215 215 216
192 177 192 216 158 123 127 149 146 140 107 91 78 61 32 8 358 347 345 338 326 315 312 322 333 322 306 286 274 263 251 238 229 222 219 219 218 217 216 216 212 209 208 209
Wind_Speed_850mb
13 10 13 15 13 11 11 13 11 2 6 5 11 17 18 22 19 31 45 48 56 63 56 57 53 52 56 60 64 63 63 59 57 55 59 49 55 51 51 48 44 43 40 38
8 14 17 17 11 10 7 9 8 4 3 8 2 20 20 12 21 40 48 53 61 61 64 62 59 57 56 59 58 64 66 64 62 60 62 59 51 54 54 53 52 49 46 44
16 14 21 14 10 12 6 12 10 9 3 0 6 15 12 12 36 50 49 53 60 67 69 64 64 58 58 63 61 59 59 58 57 59 58 59 56 53 51 52 56 54 52 53
9 8 22 14 9 11 9 11 8 10 7 9 5 11 12 12 18 14 59 67 72 73 73 69 62 56 56 60 60 56 59 59 54 55 58 57 54 56 53 45 37 37 45 47
15 17 17 11 16 15 14 10 11 6 6 2 2 5 15 2 11 20 46 75 85 84 76 73 65 51 50 50 55 52 55 60 60 61 61 60 57 55 49 44 37 33 34 40
11 9 14 21 6 17 19 14 12 8 5 6 12 11 10 11 17 16 17 53 65 69 75 80 62 56 51 51 54 53 52 56 60 62 65 66 64 61 57 51 44 41 36 39
5 5 2 11 14 8 9 16 2 2 2 11 3 5 18 17 19 13 10 20 18 30 49 65 71 67 58 52 57 56 54 54 57 59 63 64 65 65 60 57 52 43 41 42
20 12 17 8 14 18 13 18 11 12 7 7 7 14 13 19 23 39 46 40 34 28 32 45 55 58 57 54 56 53 51 48 48 52 58 62 63 61 55 52 52 44 46 43
15 9 4 6 9 24 12 9 13 13 4 6 9 13 19 22 22 35 40 34 51 38 30 38 49 51 49 51 48 43 43 46 49 53 57 59 60 53 50 47 45 47 43 38
12 9 2 1 8 5 17 21 8 3 7 8 9 9 12 12 17 14 15 33 30 30 31 37 41 42 42 41 40 41 43 43 41 38 37 40 41 42 44 42 42 45 43 35
11 9 5 5 12 17 8 10 6 11 9 9 1 11 15 18 8 13 17 20 23 30 34 38 38 36 37 38 38 37 35 34 32 31 30 31 30 30 40 42 42 40 40 35
5 11 9 9 4 6 3 16 15 14 10 3 6 13 5 11 8 18 18 12 19 23 29 30 33 36 37 36 35 32 29 28 30 30 28 28 32 38 40 42 41 39 39 34
14 1 8 7 6 3 9 6 13 12 6 14 9 9 8 10 7 10 10 12 17 23 31 36 40 40 37 35 35 34 33 32 32 31 30 33 35 36 39 38 37 36 32 29
24 7 14 21 12 15 12 12 11 12 5 8 28 6 4 9 11 12 9 8 17 27 32 37 42 41 38 38 38 37 38 36 34 35 38 39 40 40 38 35 32 31 30 30
11 13 8 3 6 14 13 22 24 25 49 20 51 23 18 14 12 14 10 10 11 19 28 38 43 43 41 42 43 44 43 40 38 39 41 42 41 39 37 36 36 34 34 33
5 3 6 6 6 1 5 17 36 45 39 45 34 29 9 46 45 32 35 30 34 36 38 41 42 45 48 46 46 47 49 48 47 46 44 44 43 41 41 41 40 40 39 36
15 12 7 9 4 9 9 32 28 24 29 33 36 23 15 16 21 45 49 48 52 53 50 52 44 41 42 47 51 51 50 49 49 49 49 48 47 46 46 45 45 43 42 40
12 13 6 6 4 9 16 13 28 38 34 41 47 6 12 29 55 60 57 52 51 50 53 57 51 47 47 51 52 50 52 54 55 56 56 55 54 52 51 51 50 48 45 41
12 11 6 8 6 12 22 12 13 15 33 31 37 18 30 53 43 50 46 59 72 66 61 59 59 63 56 53 53 57 58 61 62 65 66 65 63 61 58 57 54 52 49 45
7 13 15 7 12 24 9 23 23 13 41 19 32 29 31 31 20 16 55 58 62 63 67 72 69 66 64 61 59 62 66 70 72 73 73 70 66 62 61 59 57 53 49 46
10 13 28 14 12 16 11 11 32 20 14 11 22 33 33 18 29 9 17 27 33 36 40 46 50 52 52 53 56 60 68 75 74 74 73 70 66 64 60 59 58 57 54 49
20 19 16 11 18 34 16 11 24 6 6 9 1 5 11 31 33 33 36 40 42 42 43 46 49 51 48 45 48 54 62 66 74 74 71 70 69 69 68 65 63 59 54 50
10 16 13 24 12 7 39 3 9 4 1 5 7 4 7 8 6 5 12 18 19 21 23 24 27 30 32 36 40 46 53 62 72 74 74 74 73 72 73 72 68 63 57 53
5 5 8 7 7 11 38 16 8 9 6 6 5 2 4 3 6 5 5 10 15 16 14 13 16 18 20 23 29 35 42 51 64 71 74 76 77 77 76 70 66 63 61 57
5 12 11 3 5 10 12 19 15 7 3 1 2 2 4 7 9 10 8 9 10 10 10 13 15 15 15 17 21 28 34 43 57 68 74 78 79 79 77 73 69 64 56 49
8 8 15 11 21 12 10 17 17 15 15 14 12 13 13 12 14 17 17 17 16 14 12 13 15 17 15 18 21 27 32 41 54 68 76 80 79 79 76 73 70 61 53 48
Wind_Direction_850mb
157 125 179 184 180 171 159 164 196 284 13 143 218 257 263 238 262 243 233 232 233 233 234 234 233 235 233 234 234 238 238 240 244 245 241 244 242 243 245 247 249 251 254 258
80 191 200 180 168 144 141 150 193 277 175 161 262 260 255 206 241 239 242 237 237 241 239 237 233 234 233 234 234 236 237 238 243 246 249 248 249 248 250 251 253 256 257 259
168 202 152 142 150 140 135 163 184 203 83 157 333 276 259 238 236 242 242 248 245 241 242 241 240 237 237 236 234 234 235 236 237 239 242 245 247 248 247 249 249 252 258 259
178 149 152 140 165 129 165 204 148 153 120 233 130 278 258 242 243 220 237 238 240 239 241 243 242 243 243 240 235 236 233 233 236 239 240 243 247 250 250 257 261 256 251 260
199 157 146 157 177 157 213 141 141 123 126 26 258 267 265 181 256 249 238 234 237 239 239 240 238 238 241 239 234 235 231 230 231 238 242 244 247 253 256 258 258 257 258 257
167 186 158 178 114 151 149 86 54 60 102 270 215 191 252 185 206 249 239 242 246 247 245 243 239 236 232 232 234 234 231 230 232 236 242 245 247 249 251 253 255 260 259 266
112 171 193 135 89 53 105 108 358 289 268 221 10 241 251 265 242 226 254 263 252 253 241 234 231 229 229 228 233 231 232 231 233 238 242 246 249 249 250 248 253 253 254 262
167 210 168 182 167 157 177 156 152 198 206 249 61 240 249 249 282 262 255 255 254 276 242 223 221 221 221 225 229 229 231 235 241 246 250 251 250 247 245 243 245 245 245 252
146 225 60 149 151 149 199 182 146 105 16 44 236 297 293 275 255 253 255 250 247 249 235 214 207 212 219 222 227 233 238 242 247 252 252 248 246 243 236 227 230 237 241 247
186 121 2 192 99 23 185 151 148 33 154 254 267 273 238 282 263 236 239 241 233 224 217 206 206 210 216 224 231 240 245 249 246 240 239 237 236 234 227 217 222 230 238 240
133 99 189 127 213 167 144 169 101 128 170 178 297 264 221 252 318 267 248 235 224 216 209 205 207 213 222 231 235 235 231 228 228 227 222 221 216 211 205 215 217 221 233 238
171 111 141 202 245 276 182 169 161 187 205 266 133 258 202 240 240 293 283 256 232 216 208 206 211 219 227 231 231 230 230 228 225 224 219 208 206 204 204 206 212 226 231 221
179 128 91 28 319 286 211 177 174 99 93 196 151 258 355 269 312 306 277 251 225 216 210 213 217 223 228 231 232 232 230 226 223 217 212 207 204 204 208 214 220 227 225 218
142 133 161 191 212 139 161 164 145 130 190 183 242 162 344 302 275 289 300 230 212 215 219 224 226 228 230 230 231 230 228 224 220 217 212 209 208 209 214 217 215 215 212 206
150 183 157 58 186 159 173 174 168 181 222 190 252 214 219 217 220 252 249 252 242 233 233 239 237 235 233 231 228 227 227 228 225 219 214 210 211 211 213 212 210 204 198 193
17 132 124 7 23 16 175 186 197 210 217 236 247 255 213 232 251 253 260 273 274 274 270 264 254 243 235 233 233 232 229 224 222 220 216 214 212 212 212 209 205 202 199 194
138 126 99 250 306 88 310 218 204 219 218 226 236 228 174 215 221 238 245 249 256 259 269 272 258 246 242 241 238 235 232 227 226 223 220 218 215 214 212 209 207 203 198 193
135 115 83 158 84 189 253 176 199 210 228 225 247 260 192 219 237 248 249 251 256 258 263 262 261 265 260 250 244 239 233 232 230 227 224 221 219 217 214 211 206 201 197 198
151 136 108 149 210 286 273 217 143 170 257 223 243 241 237 258 260 251 243 244 251 257 262 266 271 272 270 268 259 246 236 233 230 229 227 224 221 219 216 211 205 202 202 204
139 157 174 148 179 221 265 195 157 113 271 200 214 220 218 198 242 243 254 259 263 264 263 263 265 267 265 263 258 245 237 233 232 230 228 224 221 219 216 211 207 206 207 213
153 171 198 189 234 277 244 140 141 173 256 226 224 240 234 197 226 256 258 253 256 258 259 259 258 262 264 262 258 248 239 236 235 231 227 223 220 217 213 211 209 209 211 211
162 162 198 201 223 254 165 94 172 230 316 320 26 23 260 248 253 255 259 264 268 266 261 261 264 264 264 262 257 249 245 241 235 232 227 222 217 212 210 210 211 212 214 214
177 195 177 189 205 201 176 183 193 76 36 326 329 356 327 335 353 290 277 271 268 264 267 270 270 270 269 267 264 257 252 243 235 228 224 220 216 213 211 210 211 212 212 213
277 185 169 108 185 164 181 193 213 239 210 202 204 278 360 337 307 306 276 274 273 283 292 292 292 291 284 278 272 263 251 245 236 229 223 218 216 213 213 212 214 215 214 211
197 137 154 293 67 99 182 191 184 178 174 129 33 356 346 339 345 347 332 322 319 313 319 319 320 316 306 286 268 259 251 239 230 225 222 220 218 216 214 214 215 215 215 216
192 177 192 216 158 123 127 149 146 140 107 91 78 61 32 8 358 347 345 338 326 315 312 322 333 322 306 286 274 263 251 238 229 222 219 219 218 217 216 216 212 209 208 209